• In Hungary
  • List of Countries
  • For 7 days
  • Water Temperature
  • Satellite Maps
  • Weather Map
  • News
  • Weather Widgets
  • user-avatar
    Login

    Hourly Weather Lewis

    Today, 17 December, Sunday

    Time Temperature Precipitation Wind Pressure Humidity
    00:00 +6°C° 0 mm 11 mps 750 mmHg 88%
    01:00 +7°C° 1.5 mm 12 mps 749 mmHg 89%
    02:00 +7°C° 1.5 mm 13 mps 748 mmHg 90%
    03:00 +6°C° 1.5 mm 14 mps 747 mmHg 91%
    04:00 +7°C° 3.1 mm 13 mps 746 mmHg 92%
    05:00 +8°C° 3.1 mm 13 mps 745 mmHg 93%
    06:00 +8°C° 0 mm 12 mps 744 mmHg 93%
    07:00 +8°C° 0.8 mm 12 mps 745 mmHg 90%
    08:00 +7°C° 0.8 mm 12 mps 745 mmHg 87%
    09:00 +7°C° 0.8 mm 13 mps 746 mmHg 83%
    10:00 +7°C° 0.1 mm 12 mps 746 mmHg 77%
    11:00 +5°C° 0.1 mm 12 mps 747 mmHg 71%
    12:00 +6°C° 0 mm 11 mps 748 mmHg 65%
    13:00 +6°C° 0.1 mm 11 mps 749 mmHg 65%
    14:00 +6°C° 0.1 mm 10 mps 749 mmHg 65%
    15:00 +6°C° 0.1 mm 10 mps 750 mmHg 65%
    16:00 +5°C° 0.1 mm 10 mps 751 mmHg 66%
    17:00 +5°C° 0.1 mm 10 mps 751 mmHg 66%
    18:00 +5°C° 0.1 mm 10 mps 752 mmHg 67%
    19:00 +5°C° 0 mm 9 mps 753 mmHg 67%
    20:00 +5°C° 0 mm 8 mps 753 mmHg 68%
    21:00 +5°C° 0 mm 8 mps 754 mmHg 68%
    22:00 +5°C° 0 mm 7 mps 754 mmHg 69%
    23:00 +5°C° 0 mm 7 mps 755 mmHg 70%

    Tomorrow, 18 December, Monday

    Time Temperature Precipitation Wind Pressure Humidity
    00:00 +5°C° 0 mm 6 mps 755 mmHg 71%
    01:00 +5°C° 0 mm 6 mps 756 mmHg 73%
    02:00 +5°C° 0 mm 6 mps 756 mmHg 74%
    03:00 +5°C° 0 mm 6 mps 756 mmHg 76%
    04:00 +5°C° 0 mm 7 mps 756 mmHg 77%
    05:00 +6°C° 0 mm 8 mps 757 mmHg 79%
    06:00 +6°C° 0 mm 8 mps 757 mmHg 81%
    07:00 +6°C° 0 mm 9 mps 757 mmHg 82%
    08:00 +6°C° 0 mm 9 mps 757 mmHg 84%
    09:00 +6°C° 0 mm 10 mps 757 mmHg 86%
    10:00 +7°C° 0 mm 11 mps 757 mmHg 86%
    11:00 +7°C° 0 mm 11 mps 757 mmHg 86%
    12:00 +7°C° 0 mm 12 mps 757 mmHg 86%
    13:00 +7°C° 0 mm 12 mps 757 mmHg 87%
    14:00 +7°C° 0 mm 12 mps 757 mmHg 88%
    15:00 +7°C° 0 mm 13 mps 757 mmHg 89%
    16:00 +7°C° 0.1 mm 13 mps 757 mmHg 89%
    17:00 +7°C° 0.1 mm 12 mps 757 mmHg 90%
    18:00 +8°C° 0.1 mm 12 mps 756 mmHg 91%
    19:00 +8°C° 0.1 mm 12 mps 756 mmHg 92%
    20:00 +8°C° 0.1 mm 12 mps 757 mmHg 92%
    21:00 +8°C° 0.1 mm 12 mps 757 mmHg 93%
    22:00 +8°C° 0 mm 12 mps 757 mmHg 93%
    23:00 +8°C° 0 mm 12 mps 757 mmHg 93%

    Day after tomorrow, 19 December, Tuesday

    Time Temperature Precipitation Wind Pressure Humidity
    00:00 +9°C° 0 mm 12 mps 756 mmHg 93%
    01:00 +9°C° 0 mm 12 mps 756 mmHg 93%
    02:00 +9°C° 0 mm 12 mps 756 mmHg 93%
    03:00 +9°C° 0 mm 12 mps 756 mmHg 93%
    04:00 +9°C° 0 mm 12 mps 756 mmHg 92%
    05:00 +9°C° 0 mm 12 mps 756 mmHg 92%
    06:00 +9°C° 0 mm 12 mps 756 mmHg 92%
    07:00 +9°C° 0 mm 13 mps 756 mmHg 92%
    08:00 +9°C° 0 mm 13 mps 756 mmHg 92%
    09:00 +9°C° 0 mm 13 mps 756 mmHg 92%
    10:00 +9°C° 0 mm 13 mps 756 mmHg 92%
    11:00 +9°C° 0 mm 13 mps 755 mmHg 91%
    12:00 +9°C° 0 mm 13 mps 755 mmHg 91%
    13:00 +9°C° 0.3 mm 13 mps 755 mmHg 91%
    14:00 +9°C° 0.3 mm 13 mps 754 mmHg 91%
    15:00 +9°C° 0.3 mm 14 mps 754 mmHg 91%
    16:00 +9°C° 0.9 mm 13 mps 754 mmHg 91%
    17:00 +9°C° 0.9 mm 13 mps 754 mmHg 91%
    18:00 +9°C° 0.9 mm 13 mps 754 mmHg 91%
    19:00 +9°C° 0.6 mm 12 mps 754 mmHg 92%
    20:00 +9°C° 0.6 mm 11 mps 755 mmHg 92%
    21:00 +9°C° 0.6 mm 10 mps 755 mmHg 93%
    22:00 +9°C° 0.1 mm 8 mps 756 mmHg 90%
    23:00 +8°C° 0.1 mm 6 mps 757 mmHg 88%

    20 December, Wednesday

    Time Temperature Precipitation Wind Pressure Humidity
    00:00 +7°C° 0.1 mm 5 mps 757 mmHg 85%
    01:00 +7°C° 0 mm 4 mps 758 mmHg 84%
    02:00 +7°C° 0 mm 4 mps 758 mmHg 84%
    03:00 +8°C° 0 mm 3 mps 759 mmHg 83%
    04:00 +7°C° 0 mm 4 mps 759 mmHg 84%
    05:00 +7°C° 0 mm 4 mps 759 mmHg 85%
    06:00 +6°C° 0 mm 5 mps 760 mmHg 87%
    07:00 +7°C° 0 mm 6 mps 760 mmHg 85%
    08:00 +6°C° 0 mm 7 mps 760 mmHg 84%
    09:00 +6°C° 0 mm 8 mps 761 mmHg 83%
    10:00 +6°C° 0.1 mm 9 mps 761 mmHg 82%
    11:00 +7°C° 0.1 mm 9 mps 761 mmHg 81%
    12:00 +7°C° 0.1 mm 10 mps 761 mmHg 80%
    13:00 +7°C° 0.3 mm 10 mps 761 mmHg 80%
    14:00 +7°C° 0.3 mm 11 mps 761 mmHg 81%
    15:00 +7°C° 0.3 mm 11 mps 761 mmHg 81%
    16:00 +7°C° 0.1 mm 11 mps 761 mmHg 79%
    17:00 +6°C° 0.1 mm 10 mps 761 mmHg 78%
    18:00 +6°C° 0.1 mm 10 mps 762 mmHg 76%
    19:00 +6°C° 0 mm 10 mps 762 mmHg 74%
    20:00 +6°C° 0 mm 9 mps 762 mmHg 72%
    21:00 +6°C° 0 mm 9 mps 763 mmHg 70%
    22:00 +6°C° 0 mm 8 mps 763 mmHg 70%
    23:00 +5°C° 0 mm 8 mps 763 mmHg 71%

    21 December, Thursday

    Time Temperature Precipitation Wind Pressure Humidity
    00:00 +5°C° 0 mm 8 mps 763 mmHg 71%
    01:00 +5°C° 0.1 mm 8 mps 763 mmHg 71%
    02:00 +5°C° 0.1 mm 8 mps 763 mmHg 70%
    03:00 +5°C° 0.1 mm 8 mps 763 mmHg 70%
    04:00 +5°C° 0.1 mm 9 mps 763 mmHg 70%
    05:00 +5°C° 0.1 mm 9 mps 763 mmHg 70%
    06:00 +5°C° 0.1 mm 9 mps 763 mmHg 70%
    07:00 +5°C° 0.1 mm 9 mps 763 mmHg 69%
    08:00 +5°C° 0.1 mm 9 mps 763 mmHg 68%
    09:00 +5°C° 0.1 mm 9 mps 763 mmHg 67%
    10:00 +5°C° 0.1 mm 9 mps 764 mmHg 67%
    11:00 +5°C° 0.1 mm 9 mps 764 mmHg 68%
    12:00 +5°C° 0.1 mm 9 mps 764 mmHg 68%
    13:00 +5°C° 0 mm 9 mps 765 mmHg 68%
    14:00 +5°C° 0 mm 9 mps 765 mmHg 68%
    15:00 +5°C° 0 mm 9 mps 765 mmHg 68%
    16:00 +5°C° 0 mm 9 mps 765 mmHg 68%
    17:00 +5°C° 0 mm 9 mps 766 mmHg 69%
    18:00 +5°C° 0 mm 9 mps 766 mmHg 70%
    19:00 +5°C° 0 mm 9 mps 766 mmHg 70%
    20:00 +5°C° 0 mm 9 mps 766 mmHg 71%
    21:00 +5°C° 0 mm 8 mps 767 mmHg 71%
    22:00 +5°C° 0 mm 8 mps 767 mmHg 73%
    23:00 +5°C° 0 mm 7 mps 767 mmHg 75%

    22 December, Friday

    Time Temperature Precipitation Wind Pressure Humidity
    00:00 +5°C° 0 mm 7 mps 767 mmHg 76%
    01:00 +5°C° 0 mm 6 mps 767 mmHg 77%
    02:00 +5°C° 0 mm 6 mps 767 mmHg 78%
    03:00 +6°C° 0 mm 5 mps 767 mmHg 79%
    04:00 +5°C° 0 mm 4 mps 767 mmHg 79%
    05:00 +5°C° 0 mm 3 mps 767 mmHg 80%
    06:00 +6°C° 0 mm 2 mps 767 mmHg 80%
    07:00 +6°C° 0 mm 2 mps 767 mmHg 80%
    08:00 +6°C° 0 mm 2 mps 767 mmHg 81%
    09:00 +7°C° 0 mm 1 mps 767 mmHg 82%
    10:00 +6°C° 0 mm 2 mps 767 mmHg 82%
    11:00 +6°C° 0 mm 2 mps 767 mmHg 81%
    12:00 +6°C° 0 mm 2 mps 767 mmHg 81%
    13:00 +6°C° 0 mm 2 mps 766 mmHg 81%
    14:00 +6°C° 0 mm 2 mps 766 mmHg 80%
    15:00 +6°C° 0 mm 2 mps 766 mmHg 80%
    16:00 +5°C° 0 mm 3 mps 766 mmHg 80%
    17:00 +5°C° 0 mm 4 mps 766 mmHg 80%
    18:00 +5°C° 0 mm 4 mps 766 mmHg 79%
    19:00 +5°C° 0 mm 4 mps 766 mmHg 78%
    20:00 +5°C° 0 mm 4 mps 766 mmHg 77%
    21:00 +5°C° 0 mm 4 mps 766 mmHg 76%
    22:00 +5°C° 0 mm 5 mps 765 mmHg 77%
    23:00 +6°C° 0 mm 5 mps 765 mmHg 77%
    Show more